Header for Extended Forecast Station List Page

Search by: ID | Name | Date | Parm | Value | Avg | % Avg
Sort by: ID | Name | Date | Parm | Value | Avg | % Avg

Enter search or view all records.

Click on id for station plot
#IDNameDateParmValueAvg% Avg
0HWRI1BIG LOST-AT HOWELL RANCH NEAR CHILLY09-22-2014DISCHARGE (KAF)162470
1MACI1BIG LOST-MACKAY RESERVOIR NEAR MACKAY09-22-2014INFLOW (KAF)298348
2HALI1BIG WOOD-AT HAILEY09-22-2014DISCHARGE (KAF)294269
3MAGI1BIG WOOD-MAGIC DAM09-22-2014INFLOW (KAF)152754
4BITM8BITTERROOT-NEAR MISSOULA09-22-2014DISCHARGE (KAF)17423375
5BONM8BLACKFOOT-NEAR BONNER09-22-2014DISCHARGE (KAF)13314194
6BIGI1BOISE-AT GLENWOOD BRIDGE09-22-2014DISCHARGE (KAF)6148125
7LUCI1BOISE-LUCKY PEAK DAM09-22-2014INFLOW (KAF)38MM
8PARI1BOISE-NEAR PARMA09-22-2014DISCHARGE (KAF)19521690
9HOTI1BRUNEAU-NEAR HOT SPRINGS09-22-2014DISCHARGE (KAF)2525101
10BULO3BULLY CREEK-BULLY CREEK DAM09-22-2014INFLOW (KAF)1177
11BUDW1BUMPING-BUMPING LAKE DAM09-22-2014INFLOW (KAF)263185
12CHDW1CHELAN-LAKE CHELAN DAM09-22-2014INFLOW (KAF)230156147
13ABOM8CLARK FORK-ABOVE MISSOULA09-22-2014DISCHARGE (KAF)34535797
14DLGM8CLARK FORK-AT DEER LODGE09-22-2014DISCHARGE (KAF)616397
15SRGM8CLARK FORK-AT ST REGIS09-22-2014DISCHARGE (KAF)68377089
16BELM8CLARK FORK-BELOW MISSOULA09-22-2014DISCHARGE (KAF)51959787
17CABI1CLARK FORK-CABINET GORGE DAM09-22-2014INFLOW (KAF)2876346383
18NOXM8CLARK FORK-NOXON RAPIDS DAM09-22-2014INFLOW (KAF)2625333679
19DRMM8CLARK FORK-NR DRUMMOND09-22-2014DISCHARGE (KAF)149MM
20CLUW1CLE ELUM-CLE ELUM LAKE09-22-2014INFLOW (KAF)9692104
21ORFI1CLEARWATER-AT OROFINO09-22-2014DISCHARGE (KAF)39157468
22SPDI1CLEARWATER-AT SPALDING09-22-2014DISCHARGE (KAF)843137661
23COEI1COEUR D ALENE-COEUR D ALENE LAKE09-22-2014INFLOW (KAF)26947856
24CIBW1COLUMBIA-AT INTL BOUNDARY09-22-2014DISCHARGE (KAF)17044MM
25BONO3COLUMBIA-BONNEVILLE DAM09-22-2014INFLOW (KAF)27196MM
26CHJW1COLUMBIA-CHIEF JOSEPH DAM09-22-2014INFLOW (KAF)183411988992
27GCDW1COLUMBIA-GRAND COULEE DAM09-22-2014INFLOW (KAF)1783417258103
28JDAO3COLUMBIA-JOHN DAY DAM09-22-2014INFLOW (KAF)258472834491
29MCDW1COLUMBIA-MCNARY DAM09-22-2014INFLOW (KAF)249722763490
30PRWW1COLUMBIA-PRIEST RAPIDS DAM09-22-2014INFLOW (KAF)1944819243101
31RRHW1COLUMBIA-ROCKY REACH DAM09-22-2014INFLOW (KAF)191482071392
32TDAO3COLUMBIA-THE DALLES DAM09-22-2014INFLOW (KAF)265743101686
33WANW1COLUMBIA-WANAPUM DAM09-22-2014INFLOW (KAF)1944918943103
34WELW1COLUMBIA-WELLS DAM09-22-2014INFLOW (KAF)186072022692
35DEDI1DEADWOOD-NEAR LOWMAN09-22-2014INFLOW (KAF)171895
36MODO3DESCHUTES-AT MOODY NR BIGGS09-22-2014DISCHARGE (KAF)1258127199
37ARDW1ENTIAT-NEAR ARDENVOIR09-22-2014DISCHARGE (KAF)2322106
38CHEI1FALLS-NEAR CHESTER09-22-2014DISCHARGE (KAF)163108152
39CFMM8FLATHEAD-AT COLUMBIA FALLS09-22-2014DISCHARGE (KAF)890122173
40KERM8FLATHEAD-KERR DAM09-22-2014INFLOW (KAF)1031148869
41TRYO3GRANDE RONDE-TROY09-22-2014DISCHARGE (KAF)15824564
42REXI1HENRYS FORK-AT REXBURG09-22-2014DISCHARGE (KAF)463424109
43ANTI1HENRYS FORK-AT ST. ANTHONY09-22-2014DISCHARGE (KAF)341333102
44IPDI1HENRYS FORK-ISLAND PARK DAM09-22-2014INFLOW (KAF)11912198
45HODO3HOOD-NEAR TUCKER BRIDGE09-22-2014DISCHARGE (KAF)213181117
46SERO3JOHN DAY-AT SERVICE CK09-22-2014DISCHARGE (KAF)9613273
47KADW1KACHESS-KACHESS DAM09-22-2014INFLOW (KAF)3838100
48LAUW1KETTLE-AT LAURIER09-22-2014DISCHARGE (KAF)10112779
49PITW1KLICKITAT-NEAR PITT09-22-2014DISCHARGE (KAF)20322790
50BFEI1KOOTENAI-AT BONNERS FERRY09-22-2014STAGE (FT)MMM
51LEOI1KOOTENAI-AT LEONIA09-22-2014DISCHARGE (KAF)27021719157
52LYDM8KOOTENAI-LIBBY DAM09-22-2014INFLOW (KAF)880101986
53LWRI1LITTLE WOOD-LITTLE WOOD DAM09-22-2014INFLOW (KAF)71544
54BERO3MALHEUR-AGENCY VALLEY DAM09-22-2014INFLOW (KAF)111388
55VALO3MALHEUR-NEAR VALE09-22-2014DISCHARGE (KAF)112448
56WRMO3MALHEUR-WARM SPRINGS DAM09-22-2014INFLOW (KAF)101377
57MYKO3MCKAY CREEK-NEAR PILOT ROCK09-22-2014DISCHARGE (KAF)91091
58PATW1METHOW-NEAR PATEROS09-22-2014DISCHARGE (KAF)8910088
59WGCM8MF FLATHEAD-NEAR WEST GLACIER09-22-2014DISCHARGE (KAF)14717982
60CLFW1NACHES-NEAR CLIFFDEL09-22-2014DISCHARGE (KAF)749280
61NACW1NACHES-NEAR NACHES09-22-2014DISCHARGE (KAF)17671248
62DWRI1NF CLEARWATER-DWORSHAK DAM09-22-2014INFLOW (KAF)32843276
63FCFM8NF FLATHEAD-NEAR COLUMBIA FALLS09-22-2014DISCHARGE (KAF)18920791
64MONO3NF JOHN DAY-AT MONUMENT09-22-2014DISCHARGE (KAF)476770
65CSDI1NF PAYETTE-CASCADE DAM09-22-2014INFLOW (KAF)789087
66TONW1OKANOGAN-NEAR TONASKET09-22-2014DISCHARGE (KAF)18027665
67OWYO3OWYHEE-BELOW OWYHEE DAM09-22-2014INFLOW (KAF)366754
68EMMI1PAYETTE-NEAR EMMETT09-22-2014DISCHARGE (KAF)24134869
69ALFW1PEND OREILLE-ALBENI FALLS DAM09-22-2014INFLOW (KAF)2982398875
70HOPI1PEND OREILLE-PEND OREILLE LAKE NR HOPE09-22-2014LAKE ELEVATION (FT)MMM
71PIHI1PORTNEUF-AT POCATELLO09-22-2014DISCHARGE (KAF)435479
72PRTI1PRIEST-NEAR PRIEST RIVER09-22-2014DISCHARGE (KAF)21822199
73RCCM8ROCK CREEK-NEAR CLINTON09-22-2014DISCHARGE (KAF)505395
74WHBI1SALMON-AT WHITEBIRD09-22-2014DISCHARGE (KAF)976109889
75ARAI1SF BOISE-ANDERSON RANCH DAM09-22-2014INFLOW (KAF)7271101
76HHWM8SF FLATHEAD-HUNGRY HORSE DAM09-22-2014INFLOW (KAF)16424168
77PLDI1SF SNAKE-PALISADES DAM09-22-2014INFLOW (KAF)749708106
78SIFI1SNAKE-AB EAGLE ROCK NR IDAHO FALLS09-22-2014DISCHARGE (KAF)953840113
79AFRI1SNAKE-AMERICAN FALLS RESERVOIR09-22-2014INFLOW (KAF)14741410104
80SNAI1SNAKE-AT BLACKFOOT09-22-2014DISCHARGE (KAF)801677118
81MILI1SNAKE-AT MILNER09-22-2014DISCHARGE (KAF)11041626
82WEII1SNAKE-AT WEISER09-22-2014DISCHARGE (KAF)2730350078
83SWAI1SNAKE-BELOW SWAN FALLS09-22-2014DISCHARGE (KAF)2000245482
84BRNI1SNAKE-BROWNLEE DAM09-22-2014INFLOW (KAF)2906357081
85IHDW1SNAKE-ICE HARBOR DAM09-22-2014INFLOW (KAF)4743685869
86JLKW4SNAKE-JACKSON LAKE AT DAM09-22-2014INFLOW (KAF)128111115
87LGSW1SNAKE-LITTLE GOOSE DAM09-22-2014INFLOW (KAF)4729689769
88LGDW1SNAKE-LOWER GRANITE DAM09-22-2014INFLOW (KAF)4774685670
89LMNW1SNAKE-LOWER MONUMENTAL DAM09-22-2014INFLOW (KAF)4751693668
90ALPW4SNAKE-NEAR ALPINE09-22-2014DISCHARGE (KAF)477447107
91ANAW1SNAKE-NEAR ANATONE09-22-2014DISCHARGE (KAF)3931530774
92BFTI1SNAKE-NEAR BLACKFOOT09-22-2014DISCHARGE (KAF)820729113
93HEII1SNAKE-NEAR HEISE09-22-2014DISCHARGE (KAF)760719106
94JKSW4SNAKE-NEAR JACKSON09-22-2014DISCHARGE (KAF)375355106
95SHYI1SNAKE-NEAR SHELLEY09-22-2014DISCHARGE (KAF)941794119
96LLKW1SPOKANE-AT LONGLAKE09-22-2014INFLOW (KAF)60792766
97SPOW1SPOKANE-AT SPOKANE09-22-2014DISCHARGE (KAF)434MM
98SJMI1ST JOE-AT ST MARIES09-22-2014STAGE (FT)MMM
99SATI1ST MARIES-NEAR SANTA09-22-2014DISCHARGE (KAF)182473
100STRM8ST. REGIS-NEAR ST. REGIS09-22-2014DISCHARGE (KAF)263477
101TNAW1TEANAWAY-BELOW FORKS09-22-2014DISCHARGE (KAF)172859
102TEAI1TETON-NEAR ST. ANTHONY09-22-2014DISCHARGE (KAF)125116107
103RILW1TIETON-RIMROCK LAKE NEAR RIMROCK09-22-2014INFLOW (KAF)506282
104PDTO3UMATILLA-AT PENDLETON09-22-2014DISCHARGE (KAF)425084
105GIBO3UMATILLA-NEAR GIBBON09-22-2014DISCHARGE (KAF)192477
106UMAO3UMATILLA-NEAR UMATILLA09-22-2014DISCHARGE (KAF)6749136
107TCHW1WALLA WALLA-NEAR TOUCHET09-22-2014DISCHARGE (KAF)707298
108WSRI1WEISER-NEAR WEISER09-22-2014DISCHARGE (KAF)375667
109PESW1WENATCHEE-AT PESHASTIN09-22-2014DISCHARGE (KAF)301273110
110UNDW1WHITE SALMON-NEAR UNDERWOOD09-22-2014DISCHARGE (KAF)218198110
111RIDI1WILLOW CREEK-RIRIE DAM09-22-2014INFLOW (KAF)6870
112EASW1YAKIMA-AT EASTON09-22-2014DISCHARGE (KAF)8760145
113KIOW1YAKIMA-AT KIONA09-22-2014DISCHARGE (KAF)736610121
114UMTW1YAKIMA-AT UMTANUM09-22-2014DISCHARGE (KAF)25726298
115KEDW1YAKIMA-KEECHELUS LAKE09-22-2014INFLOW (KAF)4946107
116PARW1YAKIMA-NEAR PARKER09-22-2014DISCHARGE (KAF)458359128